TimeEDT,TemperatureF,Dew PointF,Humidity,Sea Level PressureIn,VisibilityMPH,Wind Direction,Wind SpeedMPH,Gust SpeedMPH,PrecipitationIn,Events,Conditions,WindDirDegrees,DateUTC
6:15 AM,60.8,60.8,100,30.17,0.8,Calm,Calm,-,N/A,,Unknown,0,2013-05-19 10:15:00
6:45 AM,60.8,59.0,94,30.18,0.5,Calm,Calm,-,N/A,Fog,Fog,0,2013-05-19 10:45:00
8:45 AM,62.6,62.6,100,30.20,3.0,North,5.8,-,N/A,,Overcast,10,2013-05-19 12:45:00
9:55 AM,62.6,60.8,94,30.21,6.0,NE,3.5,-,N/A,,Overcast,40,2013-05-19 13:55:00
10:45 AM,64.4,62.6,94,30.20,5.0,SE,4.6,-,N/A,,Overcast,140,2013-05-19 14:45:00
11:45 AM,64.4,64.4,100,30.20,5.0,Calm,Calm,-,N/A,,Overcast,0,2013-05-19 15:45:00
12:55 PM,69.8,64.4,83,30.17,10.0,ESE,4.6,-,N/A,,Overcast,120,2013-05-19 16:55:00
1:45 PM,69.8,66.2,88,30.16,10.0,Calm,Calm,-,N/A,,Overcast,0,2013-05-19 17:45:00
4:45 PM,73.4,66.2,78,30.11,10.0,WSW,3.5,-,N/A,,Overcast,250,2013-05-19 20:45:00
6:55 PM,73.4,66.2,78,30.09,10.0,SSE,3.5,-,N/A,,Unknown,150,2013-05-19 22:55:00
7:15 PM,73.4,66.2,78,30.09,10.0,SSE,4.6,-,N/A,,Unknown,160,2013-05-19 23:15:00
7:35 PM,71.6,66.2,83,30.10,10.0,SE,3.5,-,N/A,,Unknown,130,2013-05-19 23:35:00
7:55 PM,71.6,66.2,83,30.09,10.0,SSE,5.8,-,N/A,,Unknown,150,2013-05-19 23:55:00
8:15 PM,71.6,66.2,83,30.09,10.0,SE,5.8,-,N/A,,Unknown,140,2013-05-20 00:15:00
8:35 PM,69.8,66.2,88,30.10,10.0,Calm,Calm,-,N/A,,Unknown,0,2013-05-20 00:35:00
8:55 PM,71.6,66.2,83,30.10,10.0,Calm,Calm,-,N/A,,Unknown,0,2013-05-20 00:55:00
9:15 PM,69.8,66.2,88,30.11,10.0,Calm,Calm,-,N/A,,Unknown,0,2013-05-20 01:15:00
9:35 PM,69.8,66.2,88,30.11,10.0,SE,4.6,-,N/A,,Unknown,130,2013-05-20 01:35:00
9:55 PM,69.8,66.2,88,30.12,10.0,Calm,Calm,-,N/A,,Unknown,0,2013-05-20 01:55:00
10:15 PM,69.8,66.2,88,30.13,10.0,ESE,5.8,-,N/A,,Unknown,110,2013-05-20 02:15:00
10:35 PM,69.8,66.2,88,30.13,10.0,ESE,6.9,-,N/A,,Unknown,120,2013-05-20 02:35:00
10:55 PM,69.8,66.2,88,30.12,10.0,ESE,6.9,-,N/A,,Unknown,110,2013-05-20 02:55:00
11:15 PM,69.8,66.2,88,30.12,10.0,SE,8.1,-,N/A,,Unknown,130,2013-05-20 03:15:00
11:35 PM,69.8,68.0,94,30.13,4.0,SSE,8.1,-,N/A,,Unknown,160,2013-05-20 03:35:00
11:55 PM,68.0,68.0,100,30.12,5.0,SSE,6.9,-,N/A,,Unknown,150,2013-05-20 03:55:00